,,Stat6,,Stat2,,Stat8,,Stat9,,Stat10,,Wind1,,Wind1,
time,status,PA1M_AVG,status,PR1M_SUM,status,RH1M_AVG,status,SR1M_AVG,status,TA1M_AVG,status,W1dAve1m,status,W1sAve1m,
2003-12-11, 00:00:00,VALID,917.986,VALID,0,VALID,100,VALID,0,VALID,19.0968,VALID,9,VALID,1.46621,
2003-12-11, 00:01:00,VALID,917.986,VALID,0,VALID,100,VALID,0.0169808,VALID,19.0737,VALID,15,VALID,1.51325,
2003-12-11, 00:02:00,VALID,917.975,VALID,0,VALID,100,VALID,0,VALID,19.0903,VALID,18,VALID,1.54725,
2003-12-11, 00:03:00,VALID,917.99,VALID,0,VALID,100,VALID,0.0169808,VALID,19.0707,VALID,19,VALID,1.42634,
2003-12-11, 00:04:00,VALID,917.98,VALID,0,VALID,100,VALID,0,VALID,19.0868,VALID,18,VALID,0.985119,
2003-12-11, 00:05:00,VALID,917.975,VALID,0,VALID,100,VALID,0.0339617,VALID,19.0573,VALID,27,VALID,1.11137,
2003-12-11, 00:06:00,VALID,917.978,VALID,0,VALID,100,VALID,0.0169808,VALID,19.0742,VALID,25,VALID,0.897711,
2003-12-11, 00:07:00,VALID,917.96,VALID,0,VALID,100,VALID,0.0169808,VALID,19.061,VALID,2,VALID,1.08103,
2003-12-11, 00:08:00,VALID,917.935,VALID,0,VALID,100,VALID,0.0169808,VALID,19.0546,VALID,359,VALID,1.40974,
2003-12-11, 00:09:00,VALID,917.945,VALID,0,VALID,100,VALID,0,VALID,19.0483,VALID,19,VALID,0.927326,
2003-12-11, 00:10:00,VALID,917.927,VALID,0,VALID,100,VALID,0.0169808,VALID,19.0409,VALID,7,VALID,1.80506,
2003-12-11, 00:11:00,VALID,917.909,VALID,0,VALID,100,VALID,0.0169808,VALID,19.0446,VALID,33,VALID,1.02743,
2003-12-11, 00:12:00,VALID,917.912,VALID,0,VALID,100,VALID,0.0169808,VALID,19.0412,VALID,17,VALID,0.873757,
2003-12-11, 00:13:00,VALID,917.9,VALID,0,VALID,100,VALID,0,VALID,19.0578,VALID,14,VALID,0.909157,
2003-12-11, 00:14:00,VALID,917.893,VALID,0,VALID,100,VALID,0,VALID,19.0705,VALID,26,VALID,0.713605,
2003-12-11, 00:15:00,VALID,917.87,VALID,0,VALID,100,VALID,0,VALID,19.0933,VALID,25,VALID,0.28125,
2003-12-11, 00:16:00,VALID,917.845,VALID,0,VALID,100,VALID,0,VALID,19.0933,VALID,22,VALID,1.18572,
2003-12-11, 00:17:00,VALID,917.836,VALID,0,VALID,100,VALID,0,VALID,19.0901,VALID,16,VALID,1.11433,
2003-12-11, 00:18:00,VALID,917.836,VALID,0,VALID,100,VALID,0,VALID,19.0933,VALID,11,VALID,0.876635,
2003-12-11, 00:19:00,VALID,917.829,VALID,0,VALID,100,VALID,0,VALID,19.1067,VALID,21,VALID,0.364329,
2003-12-11, 00:20:00,VALID,917.839,VALID,0,VALID,100,VALID,0.0169808,VALID,19.0898,VALID,21,VALID,0.623001,
2003-12-11, 00:21:00,VALID,917.834,VALID,0,VALID,100,VALID,0,VALID,19.0901,VALID,20,VALID,0.838986,
2003-12-11, 00:22:00,VALID,917.815,VALID,0,VALID,100,VALID,0.0169808,VALID,19.1127,VALID,28,VALID,0.276972,
2003-12-11, 00:23:00,VALID,917.783,VALID,0,VALID,100,VALID,0.0509425,VALID,19.1191,VALID,25,VALID,0.698946,
2003-12-11, 00:24:00,VALID,917.757,VALID,0,VALID,100,VALID,0.0169808,VALID,19.1254,VALID,17,VALID,0.897195,
2003-12-11, 00:25:00,VALID,917.751,VALID,0,VALID,100,VALID,0.0169808,VALID,19.109,VALID,25,VALID,0.60061,
2003-12-11, 00:26:00,VALID,917.749,VALID,0,VALID,100,VALID,0.0339617,VALID,19.1191,VALID,22,VALID,0.599085,
2003-12-11, 00:27:00,VALID,917.751,VALID,0,VALID,100,VALID,0.0169808,VALID,19.1189,VALID,17,VALID,0.562863,
2003-12-11, 00:28:00,VALID,917.743,VALID,0,VALID,100,VALID,0.0339617,VALID,19.1417,VALID,16,VALID,0.581745,
2003-12-11, 00:29:00,VALID,917.735,VALID,0,VALID,100,VALID,0,VALID,19.1547,VALID,30,VALID,0.644817,
2003-12-11, 00:30:00,VALID,917.726,VALID,0,VALID,100,VALID,0.0169808,VALID,19.1576,VALID,19,VALID,0.5129,
2003-12-11, 00:31:00,VALID,917.717,VALID,0,VALID,100,VALID,0,VALID,19.1611,VALID,17,VALID,0.480469,
2003-12-11, 00:32:00,VALID,917.703,VALID,0,VALID,100,VALID,0,VALID,19.145,VALID,18,VALID,0.271391,
2003-12-11, 00:33:00,VALID,917.699,VALID,0,VALID,100,VALID,0,VALID,19.1392,VALID,14,VALID,0.490057,
2003-12-11, 00:34:00,VALID,917.695,VALID,0,VALID,100,VALID,0.0339617,VALID,19.1447,VALID,13,VALID,0.046875,
2003-12-11, 00:35:00,VALID,917.684,VALID,0,VALID,100,VALID,0,VALID,19.1549,VALID,13,VALID,0.0159884,
2003-12-11, 00:36:00,VALID,917.668,VALID,0,VALID,100,VALID,0,VALID,19.1415,VALID,13,VALID,0.000181686,
2003-12-11, 00:37:00,VALID,917.65,VALID,0,VALID,100,VALID,-0.0509425,VALID,19.145,VALID,19,VALID,0.347656,
2003-12-11, 00:38:00,VALID,917.638,VALID,0,VALID,100,VALID,-0.0169808,VALID,19.1425,VALID,19,VALID,0.265799,
2003-12-11, 00:39:00,VALID,917.64,VALID,0,VALID,100,VALID,0,VALID,19.1355,VALID,4,VALID,0.176639,
2003-12-11, 00:40:00,VALID,917.636,VALID,0,VALID,100,VALID,-0.0339617,VALID,19.1102,VALID,308,VALID,0.10032,
2003-12-11, 00:41:00,VALID,917.635,VALID,0,VALID,100,VALID,-0.0339617,VALID,19.104,VALID,308,VALID,0.00277778,
2003-12-11, 00:42:00,VALID,917.616,VALID,0,VALID,100,VALID,-0.0679233,VALID,19.1037,VALID,293,VALID,0.114099,
2003-12-11, 00:43:00,VALID,917.609,VALID,0,VALID,100,VALID,-0.0339617,VALID,19.097,VALID,291,VALID,0,
2003-12-11, 00:44:00,VALID,917.596,VALID,0,VALID,100,VALID,-0.0679233,VALID,19.0938,VALID,2,VALID,0.322359,
2003-12-11, 00:45:00,VALID,917.582,VALID,0,VALID,100,VALID,-0.0169808,VALID,19.0873,VALID,7,VALID,0.360465,
2003-12-11, 00:46:00,VALID,917.576,VALID,0,VALID,100,VALID,-0.0849042,VALID,19.0809,VALID,18,VALID,0.663336,
2003-12-11, 00:47:00,VALID,917.567,VALID,0,VALID,100,VALID,-0.101885,VALID,19.1037,VALID,37,VALID,0.398438,
2003-12-11, 00:48:00,VALID,917.541,VALID,0,VALID,100,VALID,-0.0509425,VALID,19.1104,VALID,35,VALID,0.340774,
2003-12-11, 00:49:00,VALID,917.528,VALID,0,VALID,100,VALID,-0.0339617,VALID,19.1065,VALID,22,VALID,0.827567,
2003-12-11, 00:50:00,VALID,917.516,VALID,0,VALID,100,VALID,0,VALID,19.1296,VALID,28,VALID,0.488281,
2003-12-11, 00:51:00,VALID,917.514,VALID,0,VALID,100,VALID,-0.0849042,VALID,19.1261,VALID,28,VALID,0.289418,
2003-12-11, 00:52:00,VALID,917.507,VALID,0,VALID,100,VALID,-0.0339617,VALID,19.1132,VALID,58,VALID,0.420967,
2003-12-11, 00:53:00,VALID,917.508,VALID,0,VALID,100,VALID,-0.0169808,VALID,19.1134,VALID,29,VALID,0.212843,
2003-12-11, 00:54:00,VALID,917.494,VALID,0,VALID,100,VALID,0,VALID,19.1229,VALID,35,VALID,0.832292,
2003-12-11, 00:55:00,VALID,917.478,VALID,0,VALID,100,VALID,-0.0169808,VALID,19.1,VALID,21,VALID,0.545833,
2003-12-11, 00:56:00,VALID,917.462,VALID,0,VALID,100,VALID,-0.0339617,VALID,19.1102,VALID,1,VALID,0.507617,
2003-12-11, 00:57:00,VALID,917.461,VALID,0,VALID,100,VALID,-0.0169808,VALID,19.1199,VALID,336,VALID,0.633194,
2003-12-11, 00:58:00,VALID,917.455,VALID,0,VALID,100,VALID,-0.0339617,VALID,19.1102,VALID,40,VALID,0.688643,
2003-12-11, 00:59:00,VALID,917.433,VALID,0,VALID,100,VALID,-0.0169808,VALID,19.097,VALID,23,VALID,0.699826,
2003-12-11, 01:00:00,VALID,917.439,VALID,0,VALID,100,VALID,-0.0339617,VALID,19.1002,VALID,7,VALID,0.914063,
2003-12-11, 01:01:00,VALID,917.429,VALID,0,VALID,100,VALID,-0.0339617,VALID,19.1035,VALID,25,VALID,0.970203,
2003-12-11, 01:02:00,VALID,917.432,VALID,0,VALID,100,VALID,-0.0169808,VALID,19.0938,VALID,48,VALID,0.532158,
2003-12-11, 01:03:00,VALID,917.426,VALID,0,VALID,100,VALID,-0.0169808,VALID,19.1062,VALID,36,VALID,0.578697,
2003-12-11, 01:04:00,VALID,917.431,VALID,0,VALID,100,VALID,-0.0339617,VALID,19.1261,VALID,8,VALID,0.464844,
2003-12-11, 01:05:00,VALID,917.417,VALID,0,VALID,100,VALID,-0.0339617,VALID,19.1455,VALID,18,VALID,1.25191,
2003-12-11, 01:06:00,VALID,917.421,VALID,0,VALID,100,VALID,-0.0169808,VALID,19.1286,VALID,27,VALID,1.04397,
2003-12-11, 01:07:00,VALID,917.413,VALID,0,VALID,100,VALID,-0.0509425,VALID,19.136,VALID,16,VALID,0.714286,
2003-12-11, 01:08:00,VALID,917.409,VALID,0,VALID,100,VALID,-0.0339617,VALID,19.1425,VALID,22,VALID,0.928711,
2003-12-11, 01:09:00,VALID,917.419,VALID,0,VALID,100,VALID,-0.0339617,VALID,19.1457,VALID,52,VALID,0.535937,
2003-12-11, 01:10:00,VALID,917.413,VALID,0,VALID,100,VALID,0,VALID,19.136,VALID,32,VALID,1.26708,
2003-12-11, 01:11:00,VALID,917.426,VALID,0,VALID,100,VALID,-0.0339617,VALID,19.1132,VALID,351,VALID,0.825994,
2003-12-11, 01:12:00,VALID,917.434,VALID,0,VALID,100,VALID,-0.0679233,VALID,19.1231,VALID,20,VALID,0.871366,
2003-12-11, 01:13:00,VALID,917.428,VALID,0,VALID,100,VALID,-0.0339617,VALID,19.1062,VALID,295,VALID,0.75465,
2003-12-11, 01:14:00,VALID,917.435,VALID,0,VALID,100,VALID,-0.0169808,VALID,19.1,VALID,7,VALID,0.561547,
2003-12-11, 01:15:00,VALID,917.416,VALID,0,VALID,100,VALID,-0.0339617,VALID,19.1067,VALID,12,VALID,0.127841,
2003-12-11, 01:16:00,VALID,917.403,VALID,0,VALID,100,VALID,-0.0169808,VALID,19.1002,VALID,22,VALID,0.998242,
2003-12-11, 01:17:00,VALID,917.399,VALID,0,VALID,100,VALID,-0.0339617,VALID,19.1032,VALID,24,VALID,0.422057,
2003-12-11, 01:18:00,VALID,917.384,VALID,0,VALID,100,VALID,-0.0339617,VALID,19.1097,VALID,22,VALID,0.499047,
2003-12-11, 01:19:00,VALID,917.38,VALID,0,VALID,100,VALID,0,VALID,19.1362,VALID,342,VALID,0.14707,
2003-12-11, 01:20:00,VALID,917.372,VALID,0,VALID,100,VALID,-0.0169808,VALID,19.1196,VALID,357,VALID,0.379861,
2003-12-11, 01:21:00,VALID,917.371,VALID,0,VALID,100,VALID,0,VALID,19.1134,VALID,19,VALID,1.03507,
2003-12-11, 01:22:00,VALID,917.354,VALID,0,VALID,100,VALID,-0.0339617,VALID,19.1229,VALID,26,VALID,0.731712,
2003-12-11, 01:23:00,VALID,917.343,VALID,0,VALID,100,VALID,-0.0339617,VALID,19.1258,VALID,24,VALID,0.784702,
2003-12-11, 01:24:00,VALID,917.331,VALID,0,VALID,100,VALID,-0.0169808,VALID,19.1293,VALID,357,VALID,0.443444,
2003-12-11, 01:25:00,VALID,917.31,VALID,0,VALID,100,VALID,-0.0509425,VALID,19.1099,VALID,11,VALID,0.53311,
2003-12-11, 01:26:00,VALID,917.286,VALID,0,VALID,100,VALID,0,VALID,19.0998,VALID,13,VALID,0.648251,
2003-12-11, 01:27:00,VALID,917.275,VALID,0,VALID,100,VALID,-0.0169808,VALID,19.1162,VALID,13,VALID,0.990916,
2003-12-11, 01:28:00,VALID,917.276,VALID,0,VALID,100,VALID,-0.0339617,VALID,19.1233,VALID,13,VALID,0.776677,
2003-12-11, 01:29:00,VALID,917.26,VALID,0,VALID,100,VALID,-0.0339617,VALID,19.1201,VALID,60,VALID,0.410156,
2003-12-11, 01:30:00,VALID,917.257,VALID,0,VALID,100,VALID,-0.0339617,VALID,19.1256,VALID,27,VALID,0.434775,
2003-12-11, 01:31:00,VALID,917.258,VALID,0,VALID,100,VALID,-0.0679233,VALID,19.1298,VALID,28,VALID,0.962391,
2003-12-11, 01:32:00,VALID,917.236,VALID,0,VALID,100,VALID,0,VALID,19.1191,VALID,28,VALID,1.09866,
2003-12-11, 01:33:00,VALID,917.239,VALID,0,VALID,100,VALID,-0.0509425,VALID,19.1293,VALID,21,VALID,1.02095,
2003-12-11, 01:34:00,VALID,917.224,VALID,0,VALID,100,VALID,-0.0169808,VALID,19.1296,VALID,21,VALID,0.664971,
2003-12-11, 01:35:00,VALID,917.214,VALID,0,VALID,100,VALID,-0.0339617,VALID,19.1194,VALID,33,VALID,0.605035,
2003-12-11, 01:36:00,VALID,917.21,VALID,0,VALID,100,VALID,-0.0339617,VALID,19.1226,VALID,22,VALID,1.15682,
2003-12-11, 01:37:00,VALID,917.196,VALID,0,VALID,100,VALID,0,VALID,19.1325,VALID,22,VALID,1.30842,
2003-12-11, 01:38:00,VALID,917.181,VALID,0,VALID,100,VALID,0,VALID,19.1256,VALID,20,VALID,1.55367,
2003-12-11, 01:39:00,VALID,917.152,VALID,0,VALID,100,VALID,0.0509425,VALID,19.1383,VALID,25,VALID,1.24018,
2003-12-11, 01:40:00,VALID,917.138,VALID,0,VALID,100,VALID,0.0169808,VALID,19.1522,VALID,18,VALID,1.3228,
2003-12-11, 01:41:00,VALID,917.13,VALID,0,VALID,100,VALID,0.0339617,VALID,19.1484,VALID,24,VALID,1.32777,
2003-12-11, 01:42:00,VALID,917.109,VALID,0,VALID,100,VALID,0.0169808,VALID,19.1353,VALID,19,VALID,1.48945,
2003-12-11, 01:43:00,VALID,917.093,VALID,0,VALID,100,VALID,0,VALID,19.1189,VALID,22,VALID,1.31686,
2003-12-11, 01:44:00,VALID,917.099,VALID,0,VALID,100,VALID,0,VALID,19.1095,VALID,21,VALID,1.25941,
2003-12-11, 01:45:00,VALID,917.083,VALID,0,VALID,100,VALID,0.0169808,VALID,19.1328,VALID,13,VALID,0.658156,
2003-12-11, 01:46:00,VALID,917.087,VALID,0,VALID,100,VALID,0,VALID,19.1224,VALID,353,VALID,0.75218,
2003-12-11, 01:47:00,VALID,917.06,VALID,0,VALID,100,VALID,0,VALID,19.1226,VALID,16,VALID,0.704314,
2003-12-11, 01:48:00,VALID,917.054,VALID,0,VALID,100,VALID,0,VALID,19.1224,VALID,24,VALID,1.12221,
2003-12-11, 01:49:00,VALID,917.027,VALID,0,VALID,100,VALID,0.0169808,VALID,19.1325,VALID,27,VALID,1.07558,
2003-12-11, 01:50:00,VALID,917.016,VALID,0,VALID,100,VALID,-0.0169808,VALID,19.1388,VALID,23,VALID,0.442042,
2003-12-11, 01:51:00,VALID,916.992,VALID,0,VALID,100,VALID,-0.0169808,VALID,19.1517,VALID,22,VALID,0.560122,
2003-12-11, 01:52:00,VALID,916.974,VALID,0,VALID,100,VALID,0.0169808,VALID,19.1584,VALID,19,VALID,0.853237,
2003-12-11, 01:53:00,VALID,916.961,VALID,0,VALID,100,VALID,-0.0169808,VALID,19.1547,VALID,34,VALID,0.994606,
2003-12-11, 01:54:00,VALID,916.949,VALID,0,VALID,100,VALID,0.0169808,VALID,19.1609,VALID,58,VALID,0.176258,
2003-12-11, 01:55:00,VALID,916.945,VALID,0,VALID,100,VALID,0,VALID,19.1512,VALID,21,VALID,0.727471,
2003-12-11, 01:56:00,VALID,916.938,VALID,0,VALID,100,VALID,0,VALID,19.1581,VALID,21,VALID,0.740552,
2003-12-11, 01:57:00,VALID,916.931,VALID,0,VALID,100,VALID,-0.0169808,VALID,19.1547,VALID,24,VALID,1.12386,
2003-12-11, 01:58:00,VALID,916.918,VALID,0,VALID,100,VALID,0,VALID,19.1547,VALID,37,VALID,0.745584,
2003-12-11, 01:59:00,VALID,916.912,VALID,0,VALID,100,VALID,0,VALID,19.1646,VALID,25,VALID,0.463224,
2003-12-11, 02:00:00,VALID,916.909,VALID,0,VALID,100,VALID,0.0169808,VALID,19.1644,VALID,19,VALID,0.294567,
2003-12-11, 02:01:00,VALID,916.9,VALID,0,VALID,100,VALID,0,VALID,19.1547,VALID,19,VALID,0,
2003-12-11, 02:02:00,VALID,916.883,VALID,0,VALID,100,VALID,0,VALID,19.1482,VALID,19,VALID,0.139172,
2003-12-11, 02:03:00,VALID,916.88,VALID,0,VALID,100,VALID,0,VALID,19.1517,VALID,19,VALID,0.603468,
2003-12-11, 02:04:00,VALID,916.866,VALID,0,VALID,100,VALID,0.0169808,VALID,19.1514,VALID,4,VALID,0.55599,
2003-12-11, 02:05:00,VALID,916.857,VALID,0,VALID,100,VALID,0,VALID,19.1648,VALID,3,VALID,0.0251953,
2003-12-11, 02:06:00,VALID,916.845,VALID,0,VALID,100,VALID,-0.0169808,VALID,19.1678,VALID,3,VALID,0,
2003-12-11, 02:07:00,VALID,916.83,VALID,0,VALID,100,VALID,0.0169808,VALID,19.1644,VALID,4,VALID,0.0477834,
2003-12-11, 02:08:00,VALID,916.818,VALID,0,VALID,100,VALID,0,VALID,19.1676,VALID,19,VALID,0.210392,
2003-12-11, 02:09:00,VALID,916.796,VALID,0,VALID,100,VALID,0,VALID,19.1581,VALID,105,VALID,0.154576,
2003-12-11, 02:10:00,VALID,916.778,VALID,0,VALID,100,VALID,0.0169808,VALID,19.1482,VALID,28,VALID,0.407703,
2003-12-11, 02:11:00,VALID,916.769,VALID,0,VALID,100,VALID,0,VALID,19.1519,VALID,330,VALID,0.421317,
2003-12-11, 02:12:00,VALID,916.769,VALID,0,VALID,100,VALID,0,VALID,19.1417,VALID,351,VALID,0.211293,
2003-12-11, 02:13:00,VALID,916.749,VALID,0,VALID,100,VALID,0,VALID,19.1614,VALID,351,VALID,0.0830966,
2003-12-11, 02:14:00,VALID,916.736,VALID,0,VALID,100,VALID,0.0169808,VALID,19.1644,VALID,351,VALID,0.0307292,
2003-12-11, 02:15:00,VALID,916.712,VALID,0,VALID,100,VALID,-0.0169808,VALID,19.1715,VALID,11,VALID,0.317645,
2003-12-11, 02:16:00,VALID,916.697,VALID,0,VALID,100,VALID,0,VALID,19.1547,VALID,22,VALID,0.0102896,
2003-12-11, 02:17:00,VALID,916.7,VALID,0,VALID,100,VALID,0.0169808,VALID,19.1611,VALID,22,VALID,0.0767361,
2003-12-11, 02:18:00,VALID,916.683,VALID,0,VALID,100,VALID,0.0339617,VALID,19.174,VALID,36,VALID,0.200817,
2003-12-11, 02:19:00,VALID,916.667,VALID,0,VALID,100,VALID,0,VALID,19.184,VALID,24,VALID,0.349787,
2003-12-11, 02:20:00,VALID,916.651,VALID,0,VALID,100,VALID,-0.0339617,VALID,19.181,VALID,16,VALID,0.174762,
2003-12-11, 02:21:00,VALID,916.631,VALID,0,VALID,100,VALID,0.0339617,VALID,19.187,VALID,22,VALID,0.933431,
2003-12-11, 02:22:00,VALID,916.597,VALID,0,VALID,100,VALID,-0.101885,VALID,19.1886,VALID,19,VALID,0.729883,
2003-12-11, 02:23:00,VALID,916.578,VALID,0,VALID,100,VALID,-0.118866,VALID,19.1693,VALID,6,VALID,0.512536,
2003-12-11, 02:24:00,VALID,916.563,VALID,0,VALID,100,VALID,-0.118866,VALID,19.1464,VALID,20,VALID,0.594703,
2003-12-11, 02:25:00,VALID,916.55,VALID,0,VALID,100,VALID,-0.101885,VALID,19.1474,VALID,31,VALID,0.0855741,
2003-12-11, 02:26:00,VALID,916.54,VALID,0,VALID,100,VALID,-0.118866,VALID,19.1469,VALID,24,VALID,0.384146,
2003-12-11, 02:27:00,VALID,916.524,VALID,0,VALID,100,VALID,-0.101885,VALID,19.1303,VALID,9,VALID,0.67242,
2003-12-11, 02:28:00,VALID,916.537,VALID,0,VALID,100,VALID,-0.101885,VALID,19.1308,VALID,13,VALID,0.0604167,
2003-12-11, 02:29:00,VALID,916.526,VALID,0,VALID,100,VALID,-0.118866,VALID,19.1305,VALID,21,VALID,0.799279,
2003-12-11, 02:30:00,VALID,916.503,VALID,0,VALID,100,VALID,-0.101885,VALID,19.1367,VALID,19,VALID,1.25298,
2003-12-11, 02:31:00,VALID,916.485,VALID,0,VALID,100,VALID,-0.101885,VALID,19.1526,VALID,20,VALID,0.930618,
2003-12-11, 02:32:00,VALID,916.484,VALID,0,VALID,100,VALID,-0.0679233,VALID,19.1531,VALID,318,VALID,0.356712,
2003-12-11, 02:33:00,VALID,916.477,VALID,0,VALID,100,VALID,-0.101885,VALID,19.137,VALID,302,VALID,0.0430596,
2003-12-11, 02:34:00,VALID,916.46,VALID,0,VALID,100,VALID,-0.101885,VALID,19.1367,VALID,35,VALID,0.456499,
2003-12-11, 02:35:00,VALID,916.466,VALID,0,VALID,100,VALID,-0.0849042,VALID,19.1236,VALID,22,VALID,0.0167151,
2003-12-11, 02:36:00,VALID,916.46,VALID,0,VALID,100,VALID,-0.101885,VALID,19.1367,VALID,22,VALID,0,
2003-12-11, 02:37:00,VALID,916.464,VALID,0.2,VALID,100,VALID,-0.0339617,VALID,19.1321,VALID,22,VALID,0,
2003-12-11, 02:38:00,VALID,916.463,VALID,0,VALID,100,VALID,-0.0169808,VALID,19.136,VALID,309,VALID,0.359553,
2003-12-11, 02:39:00,VALID,916.456,VALID,0,VALID,100,VALID,0,VALID,19.1095,VALID,257,VALID,0.435462,
2003-12-11, 02:40:00,VALID,916.448,VALID,0,VALID,100,VALID,0,VALID,19.1194,VALID,11,VALID,0.412016,
2003-12-11, 02:41:00,VALID,916.426,VALID,0,VALID,100,VALID,0,VALID,19.1194,VALID,22,VALID,0.421317,
2003-12-11, 02:42:00,VALID,916.409,VALID,0,VALID,100,VALID,-0.0339617,VALID,19.1224,VALID,18,VALID,1.3283,
2003-12-11, 02:43:00,VALID,916.383,VALID,0,VALID,100,VALID,-0.0169808,VALID,19.1229,VALID,22,VALID,1.2411,
2003-12-11, 02:44:00,VALID,916.367,VALID,0,VALID,100,VALID,-0.0169808,VALID,19.1196,VALID,10,VALID,1.11471,
2003-12-11, 02:45:00,VALID,916.335,VALID,0,VALID,100,VALID,-0.0169808,VALID,19.106,VALID,10,VALID,0.536395,
2003-12-11, 02:46:00,VALID,916.326,VALID,0,VALID,100,VALID,-0.0169808,VALID,19.1097,VALID,9,VALID,0.00533537,
2003-12-11, 02:47:00,VALID,916.293,VALID,0,VALID,100,VALID,-0.0339617,VALID,19.1196,VALID,10,VALID,0.226376,
2003-12-11, 02:48:00,VALID,916.283,VALID,0,VALID,100,VALID,0,VALID,19.0995,VALID,10,VALID,0.436384,
2003-12-11, 02:49:00,VALID,916.261,VALID,0,VALID,100,VALID,-0.0339617,VALID,19.0906,VALID,8,VALID,0.788504,
2003-12-11, 02:50:00,VALID,916.245,VALID,0,VALID,100,VALID,-0.0169808,VALID,19.0871,VALID,344,VALID,0.577778,
2003-12-11, 02:51:00,VALID,916.231,VALID,0,VALID,100,VALID,-0.0169808,VALID,19.1007,VALID,1,VALID,0.778888,
2003-12-11, 02:52:00,VALID,916.223,VALID,0,VALID,100,VALID,-0.0169808,VALID,19.0935,VALID,332,VALID,0.555043,
2003-12-11, 02:53:00,VALID,916.221,VALID,0,VALID,100,VALID,-0.0509425,VALID,19.0739,VALID,327,VALID,0.212847,
2003-12-11, 02:54:00,VALID,916.207,VALID,0,VALID,100,VALID,-0.0169808,VALID,19.0811,VALID,320,VALID,0.215863,
2003-12-11, 02:55:00,VALID,916.194,VALID,0,VALID,100,VALID,-0.0169808,VALID,19.0647,VALID,320,VALID,0.0109012,
2003-12-11, 02:56:00,VALID,916.174,VALID,0,VALID,100,VALID,-0.0169808,VALID,19.0677,VALID,326,VALID,0.32758,
2003-12-11, 02:57:00,VALID,916.143,VALID,0,VALID,100,VALID,-0.0169808,VALID,19.0913,VALID,4,VALID,0.568359,
2003-12-11, 02:58:00,VALID,916.133,VALID,0,VALID,100,VALID,-0.0169808,VALID,19.0742,VALID,31,VALID,0.911222,
2003-12-11, 02:59:00,VALID,916.107,VALID,0,VALID,100,VALID,-0.0169808,VALID,19.0839,VALID,27,VALID,0.904726,
2003-12-11, 03:00:00,VALID,916.081,VALID,0,VALID,100,VALID,-0.0339617,VALID,19.0836,VALID,20,VALID,0.912919,
2003-12-11, 03:01:00,VALID,916.062,VALID,0,VALID,100,VALID,-0.0169808,VALID,19.0841,VALID,13,VALID,1.32146,
2003-12-11, 03:02:00,VALID,916.043,VALID,0,VALID,100,VALID,-0.0169808,VALID,19.0806,VALID,16,VALID,1.03338,
2003-12-11, 03:03:00,VALID,916.017,VALID,0,VALID,100,VALID,-0.0509425,VALID,19.0707,VALID,8,VALID,0.958841,
2003-12-11, 03:04:00,VALID,915.994,VALID,0,VALID,100,VALID,-0.0169808,VALID,19.0645,VALID,354,VALID,0.860677,
2003-12-11, 03:05:00,VALID,915.986,VALID,0,VALID,100,VALID,-0.0509425,VALID,19.0751,VALID,11,VALID,0.549162,
2003-12-11, 03:06:00,VALID,915.969,VALID,0,VALID,100,VALID,-0.0509425,VALID,19.0784,VALID,21,VALID,0.246652,
2003-12-11, 03:07:00,VALID,915.963,VALID,0,VALID,100,VALID,-0.0169808,VALID,19.0677,VALID,17,VALID,0.37221,
2003-12-11, 03:08:00,VALID,915.947,VALID,0,VALID,100,VALID,-0.0509425,VALID,19.0645,VALID,16,VALID,0.343572,
2003-12-11, 03:09:00,VALID,915.932,VALID,0,VALID,100,VALID,0,VALID,19.0744,VALID,21,VALID,0.885538,
2003-12-11, 03:10:00,VALID,915.925,VALID,0,VALID,100,VALID,-0.0169808,VALID,19.0682,VALID,7,VALID,0.91495,
2003-12-11, 03:11:00,VALID,915.916,VALID,0,VALID,100,VALID,-0.0339617,VALID,19.0615,VALID,13,VALID,0.826451,
2003-12-11, 03:12:00,VALID,915.884,VALID,0,VALID,100,VALID,-0.0679233,VALID,19.0587,VALID,9,VALID,0.339286,
2003-12-11, 03:13:00,VALID,915.872,VALID,0,VALID,100,VALID,-0.0679233,VALID,19.0652,VALID,3,VALID,0.584635,
2003-12-11, 03:14:00,VALID,915.854,VALID,0,VALID,100,VALID,-0.0849042,VALID,19.0721,VALID,20,VALID,0.852653,
2003-12-11, 03:15:00,VALID,915.831,VALID,0,VALID,100,VALID,-0.0679233,VALID,19.0719,VALID,17,VALID,0.840774,
2003-12-11, 03:16:00,VALID,915.826,VALID,0,VALID,100,VALID,-0.0679233,VALID,19.052,VALID,354,VALID,1.09223,
2003-12-11, 03:17:00,VALID,915.808,VALID,0,VALID,100,VALID,-0.0339617,VALID,19.0525,VALID,352,VALID,0.835088,
2003-12-11, 03:18:00,VALID,915.808,VALID,0,VALID,100,VALID,-0.0339617,VALID,19.0361,VALID,4,VALID,0.635417,
2003-12-11, 03:19:00,VALID,915.79,VALID,0,VALID,100,VALID,-0.0339617,VALID,19.0426,VALID,350,VALID,0.571332,
2003-12-11, 03:20:00,VALID,915.786,VALID,0,VALID,100,VALID,-0.0339617,VALID,19.0359,VALID,351,VALID,0.710405,
2003-12-11, 03:21:00,VALID,915.776,VALID,0,VALID,100,VALID,-0.0509425,VALID,19.0361,VALID,338,VALID,0.309482,
2003-12-11, 03:22:00,VALID,915.765,VALID,0,VALID,100,VALID,-0.0339617,VALID,19.0225,VALID,340,VALID,0.435454,
2003-12-11, 03:23:00,VALID,915.763,VALID,0,VALID,100,VALID,0,VALID,19.026,VALID,332,VALID,0.446987,
2003-12-11, 03:24:00,VALID,915.775,VALID,0,VALID,100,VALID,-0.0339617,VALID,19.0227,VALID,312,VALID,0.440662,
2003-12-11, 03:25:00,VALID,915.765,VALID,0,VALID,100,VALID,-0.0509425,VALID,19.0264,VALID,312,VALID,0.300272,
2003-12-11, 03:26:00,VALID,915.754,VALID,0,VALID,100,VALID,-0.0509425,VALID,19.0292,VALID,312,VALID,0.252544,
2003-12-11, 03:27:00,VALID,915.748,VALID,0,VALID,100,VALID,-0.0509425,VALID,19.0327,VALID,317,VALID,0,
2003-12-11, 03:28:00,VALID,915.738,VALID,0,VALID,100,VALID,-0.0679233,VALID,19.0331,VALID,328,VALID,0,
2003-12-11, 03:29:00,VALID,915.72,VALID,0,VALID,100,VALID,-0.0169808,VALID,19.0232,VALID,328,VALID,0,
2003-12-11, 03:30:00,VALID,915.718,VALID,0,VALID,100,VALID,-0.0679233,VALID,19.0297,VALID,328,VALID,0,
2003-12-11, 03:31:00,VALID,915.728,VALID,0,VALID,100,VALID,-0.0679233,VALID,19.0195,VALID,328,VALID,0.183866,
2003-12-11, 03:32:00,VALID,915.707,VALID,0,VALID,100,VALID,-0.0509425,VALID,19.0235,VALID,340,VALID,0.433117,
2003-12-11, 03:33:00,VALID,915.706,VALID,0,VALID,100,VALID,-0.0339617,VALID,19.023,VALID,15,VALID,0.585258,
2003-12-11, 03:34:00,VALID,915.68,VALID,0,VALID,100,VALID,-0.0169808,VALID,19.0168,VALID,351,VALID,0.2875,
2003-12-11, 03:35:00,VALID,915.682,VALID,0,VALID,100,VALID,-0.0339617,VALID,19.0235,VALID,313,VALID,0.47357,
2003-12-11, 03:36:00,VALID,915.68,VALID,0,VALID,100,VALID,-0.0679233,VALID,19.0227,VALID,329,VALID,0.438262,
2003-12-11, 03:37:00,VALID,915.687,VALID,0,VALID,100,VALID,0,VALID,19.0366,VALID,6,VALID,0.592448,
2003-12-11, 03:38:00,VALID,915.665,VALID,0,VALID,100,VALID,-0.0339617,VALID,19.0267,VALID,290,VALID,0.351017,
2003-12-11, 03:39:00,VALID,915.646,VALID,0,VALID,100,VALID,-0.0169808,VALID,19.0264,VALID,353,VALID,0.672783,
2003-12-11, 03:40:00,VALID,915.63,VALID,0,VALID,100,VALID,-0.0169808,VALID,19.02,VALID,351,VALID,1.37715,
2003-12-11, 03:41:00,VALID,915.616,VALID,0,VALID,100,VALID,-0.0509425,VALID,19.0262,VALID,335,VALID,0.602805,
2003-12-11, 03:42:00,VALID,915.598,VALID,0,VALID,100,VALID,-0.0169808,VALID,19.0426,VALID,7,VALID,0.523438,
2003-12-11, 03:43:00,VALID,915.609,VALID,0,VALID,100,VALID,0,VALID,19.0558,VALID,323,VALID,0.381696,